Find Starlink 33743

NORAD ID: 63440 Int'l Des: 2025-069 Owner: SPXS Country: US Constellation: starlink operational
LEOCIRCULAR

当前视图

正在加载3D地球...

About Starlink 33743

Starlink 33743 (NORAD 63440) is a starlink constellation satellite (v2 mini) launched Apr 4, 2025 by SPXS of US. It operates in LEO, CIRCULAR orbit with a mass of 575.00 kg.

即将过境

Passes for default location (London). Set your location on the main map for personalized predictions.

高度历史

Loading altitude history...

两行轨道根数

1 63440U 25069H 26263.44748850 .00011823 00000-0 36044-3 0 9993
2 63440 53.1600 309.9852 0001197 78.9947 281.1190 15.34405362 83222
Epoch: Sep 20, 2026 • Age: 23 hours

当前状态

高度 481.7 km
远地点 / 近地点 N/A
速度 7.62 km/s
星下点 -52.56°S, 55.46°E
发射日期 Apr 4, 2025
运行时间 1.4 years
类型 internet

技术详情

分类 Payload
质量 575.00 kg
干质量 530.00 kg
长度 0.30 m
跨度 29.00 m
形状 ? Box + pan
制造商 SPXS
平台类型 Starlink V2MO
阶段状态 In Orbit
所有者/国家 SPXS/US

Most Searched